AEE5CM LGTS-EDDM

Flight info

Callsign AEE5CM
Flight time 2h 0m
Altitude 36000
Route EDASI N146 BEKVA DCT MAVAR DCT VELIT DCT NUPSO DCT ULPIN DCT MONFA DCT BAKOR DCT SOTOV T101 BETOS BETOS1B
Aircraft A320/M-SDE3FGHIRWY/LB1

Departure

Time 2026-05-05 04:58
Airport Thessaloniki Macedonia International Airport (LGTS)

Arrival

Time 2026-05-05 06:59
Airport Munich Airport (EDDM)
Time Latitude Longitude Altitude Speed Heading
2026-05-05 04:20 40.52134 22.98215 29 ft 0 kts 15°
2026-05-05 04:38 40.52134 22.98216 29 ft 0 kts 15°
2026-05-05 04:40 40.52134 22.98215 29 ft 0 kts 15°
2026-05-05 04:49 40.52127 22.98213 28 ft 3 kts 15°
2026-05-05 04:49 40.52108 22.98207 28 ft 2 kts 15°
2026-05-05 04:50 40.52090 22.98197 28 ft 3 kts 60°
2026-05-05 04:50 40.52088 22.98174 28 ft 3 kts 104°
2026-05-05 04:50 40.52091 22.98156 28 ft 0 kts 104°
2026-05-05 04:53 40.52091 22.98157 28 ft 1 kts 104°
2026-05-05 04:53 40.52088 22.98175 28 ft 3 kts 104°
2026-05-05 04:54 40.52080 22.98214 28 ft 6 kts 104°
2026-05-05 04:54 40.52067 22.98280 28 ft 9 kts 104°
2026-05-05 04:54 40.52055 22.98336 28 ft 5 kts 118°
2026-05-05 04:54 40.52016 22.98337 28 ft 7 kts 194°
2026-05-05 04:55 40.51957 22.98317 28 ft 10 kts 194°
2026-05-05 04:55 40.51907 22.98339 28 ft 9 kts 108°
2026-05-05 04:55 40.51890 22.98435 29 ft 12 kts 104°
2026-05-05 04:55 40.51869 22.98550 29 ft 11 kts 104°
2026-05-05 04:56 40.51849 22.98654 28 ft 12 kts 104°
2026-05-05 04:56 40.51807 22.98710 28 ft 7 kts 175°
2026-05-05 04:56 40.51749 22.98691 29 ft 9 kts 194°
2026-05-05 04:56 40.51711 22.98679 29 ft 3 kts 193°
2026-05-05 04:57 40.51684 22.98669 29 ft 4 kts 205°
2026-05-05 04:57 40.51682 22.98643 29 ft 0 kts 283°
2026-05-05 04:57 40.51722 22.98425 28 ft 61 kts 284°
2026-05-05 04:58 40.51879 22.97592 29 ft 123 kts 284°
2026-05-05 04:58 40.52126 22.96288 51 ft 166 kts 283°
2026-05-05 04:58 40.52414 22.94821 599 ft 166 kts 286°
2026-05-05 04:58 40.52740 22.93358 1273 ft 167 kts 289°
2026-05-05 04:59 40.53076 22.91893 1893 ft 170 kts 289°
2026-05-05 04:59 40.53429 22.90323 2246 ft 189 kts 289°
2026-05-05 04:59 40.53811 22.88587 2519 ft 213 kts 288°
2026-05-05 04:59 40.54240 22.86605 2913 ft 237 kts 288°
2026-05-05 05:00 40.54707 22.84433 3476 ft 254 kts 288°
2026-05-05 05:00 40.55188 22.82160 4328 ft 260 kts 285°
2026-05-05 05:00 40.55311 22.79763 5206 ft 268 kts 263°
2026-05-05 05:00 40.54696 22.77426 6051 ft 276 kts 239°
2026-05-05 05:01 40.53395 22.75550 6901 ft 282 kts 218°
2026-05-05 05:01 40.51833 22.73980 7747 ft 285 kts 217°
2026-05-05 05:01 40.50787 22.72925 8298 ft 287 kts 219°
2026-05-05 05:01 40.49092 22.70251 9353 ft 293 kts 246°
2026-05-05 05:02 40.48595 22.67664 10119 ft 295 kts 270°
2026-05-05 05:02 40.48937 22.65014 10757 ft 300 kts 293°
2026-05-05 05:02 40.49614 22.63399 10912 ft 312 kts 309°
2026-05-05 05:02 40.51507 22.60285 11176 ft 340 kts 311°
2026-05-05 05:03 40.52508 22.58667 11488 ft 347 kts 311°
2026-05-05 05:03 40.54039 22.56186 12135 ft 352 kts 311°
2026-05-05 05:03 40.56086 22.52846 13066 ft 356 kts 311°
2026-05-05 05:03 40.57619 22.50269 13786 ft 359 kts 310°
2026-05-05 05:04 40.59133 22.47639 14427 ft 362 kts 309°
2026-05-05 05:04 40.60643 22.44975 15076 ft 364 kts 309°
2026-05-05 05:04 40.61643 22.43200 15497 ft 365 kts 309°
2026-05-05 05:04 40.63158 22.40513 16132 ft 366 kts 308°
2026-05-05 05:05 40.64941 22.37359 16893 ft 368 kts 308°
2026-05-05 05:05 40.65383 22.36580 17081 ft 369 kts 308°
2026-05-05 05:05 40.66924 22.33869 17744 ft 370 kts 308°
2026-05-05 05:06 40.68979 22.30262 18612 ft 373 kts 308°
2026-05-05 05:06 40.70540 22.27527 19204 ft 375 kts 308°
2026-05-05 05:06 40.71581 22.25704 19607 ft 376 kts 308°
2026-05-05 05:06 40.73158 22.22938 20178 ft 379 kts 308°
2026-05-05 05:07 40.74743 22.20149 20781 ft 381 kts 308°
2026-05-05 05:07 40.76337 22.17339 21347 ft 384 kts 309°
2026-05-05 05:07 40.77938 22.14516 21876 ft 386 kts 309°
2026-05-05 05:07 40.79554 22.11666 22375 ft 388 kts 309°
2026-05-05 05:08 40.81169 22.08806 22905 ft 390 kts 309°
2026-05-05 05:08 40.82793 22.05931 23426 ft 391 kts 309°
2026-05-05 05:08 40.84422 22.03043 23894 ft 394 kts 309°
2026-05-05 05:08 40.86039 22.00177 24304 ft 395 kts 309°
2026-05-05 05:09 40.87687 21.97258 24710 ft 397 kts 309°
2026-05-05 05:09 40.89341 21.94328 25099 ft 399 kts 309°
2026-05-05 05:09 40.91006 21.91375 25504 ft 401 kts 309°
2026-05-05 05:09 40.92675 21.88411 25894 ft 403 kts 309°
2026-05-05 05:10 40.94348 21.85433 26274 ft 404 kts 309°
2026-05-05 05:10 40.96027 21.82439 26639 ft 406 kts 309°
2026-05-05 05:10 40.97689 21.79471 26997 ft 408 kts 309°
2026-05-05 05:10 40.99381 21.76447 27395 ft 409 kts 308°
2026-05-05 05:11 41.01075 21.73414 27799 ft 411 kts 308°
2026-05-05 05:11 41.02775 21.70368 28186 ft 412 kts 308°
2026-05-05 05:11 41.04482 21.67309 28556 ft 414 kts 308°
2026-05-05 05:11 41.06197 21.64232 28899 ft 416 kts 308°
2026-05-05 05:12 41.07917 21.61141 29261 ft 417 kts 308°
2026-05-05 05:12 41.09630 21.58052 29765 ft 415 kts 308°
2026-05-05 05:12 41.11334 21.54978 30289 ft 413 kts 308°
2026-05-05 05:12 41.13008 21.51958 30737 ft 411 kts 308°
2026-05-05 05:13 41.14701 21.48908 31162 ft 410 kts 308°
2026-05-05 05:13 41.16388 21.45866 31578 ft 409 kts 308°
2026-05-05 05:13 41.18069 21.42827 31996 ft 408 kts 308°
2026-05-05 05:13 41.19743 21.39794 32424 ft 407 kts 308°
2026-05-05 05:14 41.21415 21.36763 32841 ft 406 kts 308°
2026-05-05 05:14 41.23081 21.33740 33262 ft 405 kts 308°
2026-05-05 05:14 41.24723 21.30760 33686 ft 404 kts 308°
2026-05-05 05:14 41.26380 21.27748 34116 ft 403 kts 308°
2026-05-05 05:15 41.28035 21.24743 34481 ft 402 kts 308°
2026-05-05 05:15 41.29696 21.21728 34825 ft 402 kts 308°
2026-05-05 05:15 41.31346 21.18729 35154 ft 402 kts 308°
2026-05-05 05:15 41.32990 21.15730 35461 ft 402 kts 308°
2026-05-05 05:16 41.34612 21.12764 35767 ft 401 kts 307°
2026-05-05 05:16 41.36250 21.09763 36083 ft 401 kts 307°
2026-05-05 05:16 41.37890 21.06759 36165 ft 403 kts 307°
2026-05-05 05:17 41.41209 21.00685 36178 ft 407 kts 307°
2026-05-05 05:17 41.44542 20.94582 36182 ft 407 kts 307°
2026-05-05 05:18 41.47840 20.88506 36168 ft 407 kts 307°
2026-05-05 05:18 41.51162 20.82382 36175 ft 408 kts 307°
2026-05-05 05:19 41.54486 20.76246 36176 ft 408 kts 307°
2026-05-05 05:19 41.57804 20.70108 36176 ft 407 kts 307°
2026-05-05 05:20 41.61112 20.63964 36182 ft 407 kts 307°
2026-05-05 05:20 41.64394 20.57863 36179 ft 407 kts 307°
2026-05-05 05:21 41.67695 20.51718 36177 ft 407 kts 307°
2026-05-05 05:21 41.70570 20.46426 36156 ft 406 kts 307°
2026-05-05 05:22 41.71617 20.44517 36164 ft 406 kts 307°
2026-05-05 05:22 41.74916 20.38461 36175 ft 405 kts 307°
2026-05-05 05:23 41.78220 20.32369 36176 ft 404 kts 307°
2026-05-05 05:23 41.81524 20.26277 36186 ft 404 kts 307°
2026-05-05 05:24 41.84823 20.20171 36173 ft 405 kts 307°
2026-05-05 05:24 41.88096 20.14088 36170 ft 405 kts 307°
2026-05-05 05:25 41.91396 20.07966 36165 ft 405 kts 307°
2026-05-05 05:25 41.94685 20.01834 36164 ft 404 kts 306°
2026-05-05 05:26 41.97962 19.95703 36165 ft 404 kts 306°
2026-05-05 05:26 42.01236 19.89573 36165 ft 404 kts 306°
2026-05-05 05:27 42.04487 19.83476 36166 ft 404 kts 306°
2026-05-05 05:27 42.09390 19.74274 36147 ft 403 kts 306°
2026-05-05 05:28 42.12659 19.68134 36152 ft 404 kts 306°
2026-05-05 05:28 42.15928 19.61972 36149 ft 404 kts 306°
2026-05-05 05:29 42.19165 19.55827 36159 ft 405 kts 306°
2026-05-05 05:29 42.22429 19.49636 36166 ft 405 kts 306°
2026-05-05 05:30 42.25690 19.43441 36156 ft 405 kts 306°
2026-05-05 05:30 42.28946 19.37243 36166 ft 405 kts 306°
2026-05-05 05:31 42.32188 19.31077 36177 ft 405 kts 306°
2026-05-05 05:31 42.35442 19.24866 36176 ft 405 kts 305°
2026-05-05 05:32 42.38685 19.18639 36178 ft 405 kts 305°
2026-05-05 05:32 42.41933 19.12408 36179 ft 405 kts 305°
2026-05-05 05:33 42.45164 19.06216 36153 ft 406 kts 305°
2026-05-05 05:33 42.48411 18.99957 36155 ft 406 kts 305°
2026-05-05 05:34 42.51656 18.93681 36152 ft 406 kts 305°
2026-05-05 05:34 42.54899 18.87407 36146 ft 406 kts 304°
2026-05-05 05:35 42.58140 18.81125 36145 ft 407 kts 304°
2026-05-05 05:35 42.61361 18.74872 36138 ft 407 kts 304°
2026-05-05 05:36 42.64599 18.68571 36140 ft 407 kts 304°
2026-05-05 05:36 42.67831 18.62252 36144 ft 407 kts 304°
2026-05-05 05:37 42.71067 18.55924 36155 ft 408 kts 304°
2026-05-05 05:37 42.74283 18.49626 36150 ft 408 kts 304°
2026-05-05 05:38 42.77517 18.43276 36152 ft 408 kts 304°
2026-05-05 05:38 42.80749 18.36914 36139 ft 409 kts 304°
2026-05-05 05:39 42.83986 18.30535 36141 ft 409 kts 304°
2026-05-05 05:39 42.87215 18.24143 36145 ft 410 kts 303°
2026-05-05 05:40 42.90421 18.17793 36144 ft 410 kts 304°
2026-05-05 05:40 42.93660 18.11389 36140 ft 410 kts 303°
2026-05-05 05:41 42.96885 18.04977 36141 ft 410 kts 303°
2026-05-05 05:41 43.00102 17.98542 36149 ft 410 kts 303°
2026-05-05 05:42 43.03297 17.92140 36146 ft 411 kts 303°
2026-05-05 05:42 43.06525 17.85694 36146 ft 411 kts 303°
2026-05-05 05:43 43.09748 17.79225 36142 ft 411 kts 303°
2026-05-05 05:43 43.12971 17.72750 36136 ft 412 kts 303°
2026-05-05 05:44 43.16172 17.66309 36135 ft 412 kts 303°
2026-05-05 05:44 43.19388 17.59815 36135 ft 412 kts 303°
2026-05-05 05:45 43.22603 17.53303 36134 ft 412 kts 303°
2026-05-05 05:45 43.25811 17.46787 36135 ft 412 kts 303°
2026-05-05 05:46 43.29024 17.40262 36132 ft 413 kts 303°
2026-05-05 05:46 43.32212 17.33769 36126 ft 413 kts 302°
2026-05-05 05:47 43.35427 17.27217 36126 ft 414 kts 303°
2026-05-05 05:47 43.38859 17.20858 36125 ft 415 kts 306°
2026-05-05 05:48 43.42453 17.14642 36122 ft 415 kts 307°
2026-05-05 05:48 43.46032 17.08395 36123 ft 416 kts 306°
2026-05-05 05:49 43.49535 17.02132 36122 ft 415 kts 305°
2026-05-05 05:49 43.53039 16.95810 36121 ft 415 kts 305°
2026-05-05 05:50 43.56545 16.89487 36120 ft 415 kts 305°
2026-05-05 05:50 43.60049 16.83169 36120 ft 415 kts 305°
2026-05-05 05:51 43.63528 16.76887 36116 ft 415 kts 305°
2026-05-05 05:51 43.67025 16.70554 36114 ft 415 kts 305°
2026-05-05 05:52 43.70511 16.64223 36115 ft 414 kts 305°
2026-05-05 05:52 43.73992 16.57885 36107 ft 413 kts 305°
2026-05-05 05:53 43.77471 16.51565 36108 ft 413 kts 305°
2026-05-05 05:53 43.80920 16.45272 36114 ft 414 kts 305°
2026-05-05 05:54 43.84401 16.38892 36090 ft 416 kts 305°
2026-05-05 05:54 43.87888 16.32497 36090 ft 416 kts 304°
2026-05-05 05:55 43.91371 16.26097 36098 ft 415 kts 304°
2026-05-05 05:55 43.94844 16.19693 36093 ft 415 kts 304°
2026-05-05 05:56 43.98288 16.13330 36088 ft 415 kts 304°
2026-05-05 05:56 44.01756 16.06929 36094 ft 415 kts 304°
2026-05-05 05:57 44.05223 16.00505 36086 ft 416 kts 304°
2026-05-05 05:57 44.08691 15.94049 36080 ft 417 kts 304°
2026-05-05 05:58 44.12137 15.87607 35910 ft 419 kts 304°
2026-05-05 05:58 44.13858 15.84357 35525 ft 417 kts 304°
2026-05-05 05:58 44.15568 15.81119 35387 ft 411 kts 304°
2026-05-05 05:59 44.17233 15.77878 35582 ft 414 kts 302°
2026-05-05 05:59 44.18831 15.74520 35767 ft 417 kts 300°
2026-05-05 05:59 44.20393 15.71114 36010 ft 418 kts 300°
2026-05-05 05:59 44.21959 15.67689 36077 ft 419 kts 300°
2026-05-05 06:00 44.25145 15.60889 36078 ft 419 kts 301°
2026-05-05 06:00 44.28372 15.54195 36078 ft 419 kts 301°
2026-05-05 06:01 44.31629 15.47457 36079 ft 419 kts 301°
2026-05-05 06:01 44.34873 15.40685 36063 ft 421 kts 301°
2026-05-05 06:02 44.38121 15.33872 36069 ft 422 kts 301°
2026-05-05 06:02 44.41359 15.27076 36075 ft 423 kts 301°
2026-05-05 06:03 44.44610 15.20217 36075 ft 423 kts 301°
2026-05-05 06:03 44.47859 15.13348 36083 ft 423 kts 301°
2026-05-05 06:04 44.51104 15.06477 36087 ft 423 kts 301°
2026-05-05 06:04 44.54327 14.99647 36082 ft 423 kts 301°
2026-05-05 06:05 44.57569 14.92752 36083 ft 423 kts 301°
2026-05-05 06:05 44.60807 14.85853 36091 ft 424 kts 301°
2026-05-05 06:06 44.64051 14.78936 36086 ft 424 kts 301°
2026-05-05 06:06 44.67265 14.72050 36077 ft 425 kts 301°
2026-05-05 06:07 44.70531 14.65135 36070 ft 426 kts 305°
2026-05-05 06:07 44.74293 14.58681 36073 ft 426 kts 307°
2026-05-05 06:08 44.78049 14.52226 36078 ft 426 kts 306°
2026-05-05 06:08 44.81796 14.45753 36072 ft 427 kts 306°
2026-05-05 06:09 44.85524 14.39312 36071 ft 427 kts 306°
2026-05-05 06:09 44.89282 14.32816 36081 ft 427 kts 306°
2026-05-05 06:10 44.93036 14.26308 36076 ft 427 kts 306°
2026-05-05 06:10 44.96764 14.19838 36077 ft 428 kts 306°
2026-05-05 06:11 45.00515 14.13297 36067 ft 429 kts 306°
2026-05-05 06:11 45.04269 14.06741 36066 ft 429 kts 306°
2026-05-05 06:12 45.08024 14.00175 36064 ft 429 kts 306°
2026-05-05 06:12 45.11771 13.93589 36076 ft 430 kts 306°
2026-05-05 06:13 45.15497 13.87035 36064 ft 430 kts 306°
2026-05-05 06:13 45.19245 13.80431 36047 ft 430 kts 306°
2026-05-05 06:14 45.22997 13.73809 36042 ft 431 kts 306°
2026-05-05 06:14 45.26723 13.67225 36040 ft 431 kts 306°
2026-05-05 06:15 45.30466 13.60578 36043 ft 431 kts 306°
2026-05-05 06:15 45.34209 13.53911 36028 ft 432 kts 305°
2026-05-05 06:16 45.37951 13.47221 36032 ft 432 kts 306°
2026-05-05 06:16 45.41695 13.40524 36030 ft 433 kts 306°
2026-05-05 06:17 45.45417 13.33861 36031 ft 433 kts 306°
2026-05-05 06:17 45.49251 13.27238 36031 ft 435 kts 311°
2026-05-05 06:18 45.53656 13.21287 36025 ft 437 kts 313°
2026-05-05 06:18 45.58080 13.15338 36026 ft 437 kts 313°
2026-05-05 06:19 45.62470 13.09419 36029 ft 437 kts 313°
2026-05-05 06:19 45.66873 13.03447 36023 ft 436 kts 313°
2026-05-05 06:20 45.71281 12.97473 36015 ft 437 kts 313°
2026-05-05 06:20 45.75695 12.91464 36004 ft 439 kts 313°
2026-05-05 06:21 45.80122 12.85422 36004 ft 440 kts 313°
2026-05-05 06:21 45.84559 12.79375 36006 ft 440 kts 313°
2026-05-05 06:22 45.88957 12.73346 36022 ft 440 kts 313°
2026-05-05 06:22 45.93389 12.67267 36038 ft 441 kts 313°
2026-05-05 06:23 45.97820 12.61175 36036 ft 441 kts 313°
2026-05-05 06:23 46.02260 12.55073 36035 ft 441 kts 313°
2026-05-05 06:24 46.06664 12.48998 36034 ft 442 kts 313°
2026-05-05 06:24 46.11093 12.42863 36034 ft 442 kts 313°
2026-05-05 06:25 46.15516 12.36713 36036 ft 442 kts 313°
2026-05-05 06:25 46.19950 12.30533 36031 ft 443 kts 313°
2026-05-05 06:26 46.24383 12.24362 36022 ft 443 kts 313°
2026-05-05 06:26 46.28782 12.18214 36026 ft 443 kts 313°
2026-05-05 06:27 46.35422 12.08897 36050 ft 443 kts 312°
2026-05-05 06:28 46.39842 12.02675 36029 ft 443 kts 312°
2026-05-05 06:28 46.44259 11.96446 36026 ft 444 kts 312°
2026-05-05 06:29 46.48649 11.90238 36034 ft 444 kts 312°
2026-05-05 06:29 46.53070 11.83982 36026 ft 444 kts 312°
2026-05-05 06:30 46.57495 11.77706 36018 ft 445 kts 312°
2026-05-05 06:30 46.61906 11.71410 36018 ft 444 kts 311°
2026-05-05 06:31 46.66151 11.64977 36024 ft 443 kts 309°
2026-05-05 06:31 46.70339 11.58402 36027 ft 443 kts 309°
2026-05-05 06:32 46.74545 11.51850 36010 ft 442 kts 310°
2026-05-05 06:32 46.76662 11.48577 35639 ft 444 kts 310°
2026-05-05 06:32 46.78778 11.45317 35155 ft 442 kts 310°
2026-05-05 06:32 46.80895 11.42053 34666 ft 443 kts 310°
2026-05-05 06:33 46.83014 11.38780 34168 ft 444 kts 310°
2026-05-05 06:33 46.85101 11.35541 33662 ft 445 kts 310°
2026-05-05 06:33 46.87221 11.32243 33131 ft 446 kts 310°
2026-05-05 06:33 46.89350 11.28945 32594 ft 446 kts 311°
2026-05-05 06:34 46.91736 11.26006 32051 ft 452 kts 322°
2026-05-05 06:34 46.94491 11.23736 31534 ft 458 kts 333°
2026-05-05 06:34 46.97527 11.22238 31031 ft 465 kts 344°
2026-05-05 06:34 47.00746 11.21585 30520 ft 471 kts 355°
2026-05-05 06:35 47.04045 11.21697 30025 ft 476 kts 360°
2026-05-05 06:35 47.07312 11.21915 29468 ft 477 kts 359°
2026-05-05 06:35 47.10618 11.22138 28884 ft 475 kts 360°
2026-05-05 06:35 47.13902 11.22364 28345 ft 471 kts 360°
2026-05-05 06:36 47.17167 11.22585 27791 ft 467 kts 360°
2026-05-05 06:36 47.20403 11.22806 27267 ft 463 kts 360°
2026-05-05 06:36 47.23607 11.23023 26750 ft 459 kts 360°
2026-05-05 06:36 47.26790 11.23236 26244 ft 456 kts
2026-05-05 06:37 47.29949 11.23446 25748 ft 454 kts
2026-05-05 06:37 47.33093 11.23658 25259 ft 450 kts
2026-05-05 06:37 47.36170 11.23864 24768 ft 447 kts
2026-05-05 06:37 47.39265 11.24072 24294 ft 443 kts
2026-05-05 06:38 47.42337 11.24284 23819 ft 440 kts
2026-05-05 06:38 47.45381 11.24497 23330 ft 437 kts
2026-05-05 06:38 47.48402 11.24707 22792 ft 433 kts
2026-05-05 06:38 47.51405 11.24913 22253 ft 430 kts
2026-05-05 06:39 47.54384 11.25114 21733 ft 427 kts
2026-05-05 06:39 47.57338 11.25252 21217 ft 423 kts 360°
2026-05-05 06:39 47.60273 11.25277 20706 ft 421 kts 358°
2026-05-05 06:39 47.63193 11.25233 20205 ft 418 kts 358°
2026-05-05 06:40 47.66090 11.25163 19716 ft 415 kts 358°
2026-05-05 06:40 47.68933 11.25095 19241 ft 413 kts 358°
2026-05-05 06:40 47.71786 11.25225 18805 ft 408 kts
2026-05-05 06:40 47.74575 11.25889 18342 ft 405 kts 13°
2026-05-05 06:41 47.77259 11.27078 17803 ft 401 kts 20°
2026-05-05 06:41 47.79818 11.28527 17248 ft 398 kts 21°
2026-05-05 06:41 47.82399 11.29975 16689 ft 395 kts 20°
2026-05-05 06:41 47.84960 11.31396 16134 ft 391 kts 20°
2026-05-05 06:42 47.87530 11.32661 15582 ft 388 kts 14°
2026-05-05 06:42 47.90126 11.33447 15027 ft 385 kts
2026-05-05 06:42 47.92786 11.33790 14474 ft 382 kts
2026-05-05 06:42 47.95432 11.34004 14000 ft 381 kts
2026-05-05 06:43 47.98068 11.34226 13510 ft 378 kts
2026-05-05 06:43 48.00686 11.34453 12984 ft 375 kts
2026-05-05 06:43 48.03265 11.34786 12485 ft 371 kts
2026-05-05 06:43 48.05741 11.35679 12125 ft 361 kts 18°
2026-05-05 06:44 48.08034 11.37102 11771 ft 353 kts 27°
2026-05-05 06:44 48.10079 11.38958 11467 ft 344 kts 36°
2026-05-05 06:44 48.11928 11.41141 11212 ft 334 kts 39°
2026-05-05 06:44 48.13720 11.43299 10958 ft 326 kts 39°
2026-05-05 06:45 48.15468 11.45409 10715 ft 319 kts 40°
2026-05-05 06:45 48.16918 11.47854 10468 ft 311 kts 60°
2026-05-05 06:45 48.17695 11.50788 10279 ft 300 kts 81°
2026-05-05 06:45 48.17838 11.53857 10045 ft 293 kts 91°
2026-05-05 06:46 48.17863 11.56906 9727 ft 291 kts 91°
2026-05-05 06:46 48.17885 11.59930 9412 ft 289 kts 91°
2026-05-05 06:46 48.17908 11.62896 9141 ft 288 kts 90°
2026-05-05 06:46 48.17933 11.65885 8887 ft 286 kts 91°
2026-05-05 06:47 48.17954 11.68864 8633 ft 286 kts 91°
2026-05-05 06:47 48.17973 11.71834 8379 ft 285 kts 91°
2026-05-05 06:47 48.17991 11.74794 8125 ft 284 kts 91°
2026-05-05 06:47 48.18027 11.77748 7880 ft 283 kts 88°
2026-05-05 06:48 48.18545 11.80581 7628 ft 284 kts 64°
2026-05-05 06:48 48.19519 11.83164 7380 ft 285 kts 60°
2026-05-05 06:48 48.20507 11.85684 7134 ft 282 kts 60°
2026-05-05 06:48 48.21429 11.88249 6890 ft 278 kts 66°
2026-05-05 06:49 48.22196 11.90886 6649 ft 274 kts 69°
2026-05-05 06:49 48.22930 11.93503 6408 ft 271 kts 68°
2026-05-05 06:49 48.23746 11.96042 6159 ft 269 kts 63°
2026-05-05 06:49 48.24650 11.98483 5909 ft 266 kts 62°
2026-05-05 06:50 48.25553 12.00876 5741 ft 260 kts 62°
2026-05-05 06:50 48.26462 12.03179 5586 ft 253 kts 60°
2026-05-05 06:50 48.27358 12.05365 5437 ft 246 kts 59°
2026-05-05 06:50 48.28242 12.07517 5288 ft 239 kts 59°
2026-05-05 06:51 48.29066 12.09640 5133 ft 231 kts 62°
2026-05-05 06:51 48.29828 12.11732 5028 ft 228 kts 63°
2026-05-05 06:51 48.30582 12.13821 4992 ft 228 kts 62°
2026-05-05 06:51 48.31334 12.15918 4986 ft 228 kts 63°
2026-05-05 06:52 48.32239 12.17826 4984 ft 220 kts 38°
2026-05-05 06:52 48.33590 12.18682 4988 ft 210 kts
2026-05-05 06:52 48.35018 12.18427 4989 ft 206 kts 335°
2026-05-05 06:52 48.36192 12.17251 4987 ft 203 kts 308°
2026-05-05 06:53 48.36874 12.15440 4993 ft 199 kts 282°
2026-05-05 06:53 48.36946 12.13421 4999 ft 197 kts 261°
2026-05-05 06:53 48.36794 12.11379 5000 ft 193 kts 261°
2026-05-05 06:53 48.36654 12.09465 5022 ft 177 kts 261°
2026-05-05 06:54 48.36521 12.07663 4943 ft 171 kts 261°
2026-05-05 06:54 48.36391 12.05911 4769 ft 166 kts 262°
2026-05-05 06:54 48.36265 12.04212 4582 ft 162 kts 262°
2026-05-05 06:54 48.36140 12.02525 4364 ft 163 kts 262°
2026-05-05 06:55 48.36014 12.00836 4159 ft 162 kts 261°
2026-05-05 06:55 48.35888 11.99146 3942 ft 163 kts 262°
2026-05-05 06:55 48.35764 11.97486 3743 ft 162 kts 262°
2026-05-05 06:55 48.35637 11.95801 3523 ft 161 kts 263°
2026-05-05 06:56 48.35512 11.94133 3317 ft 158 kts 262°
2026-05-05 06:56 48.35391 11.92515 3099 ft 153 kts 263°
2026-05-05 06:56 48.35275 11.90973 2908 ft 144 kts 263°
2026-05-05 06:56 48.35163 11.89494 2717 ft 143 kts 263°
2026-05-05 06:57 48.35050 11.87991 2530 ft 145 kts 263°
2026-05-05 06:57 48.34936 11.86490 2335 ft 145 kts 264°
2026-05-05 06:57 48.34824 11.85006 2133 ft 144 kts 262°
2026-05-05 06:57 48.34711 11.83522 1926 ft 142 kts 263°
2026-05-05 06:58 48.34598 11.82042 1739 ft 143 kts 263°
2026-05-05 06:58 48.34488 11.80558 1524 ft 143 kts 264°
2026-05-05 06:58 48.34386 11.79217 1485 ft 107 kts 263°
2026-05-05 06:58 48.34318 11.78364 1479 ft 57 kts 263°
2026-05-05 06:59 48.34311 11.78023 1483 ft 23 kts 287°
2026-05-05 06:59 48.34367 11.77814 1479 ft 15 kts 295°
2026-05-05 06:59 48.34412 11.77660 1477 ft 17 kts 293°
2026-05-05 06:59 48.34445 11.77545 1482 ft 10 kts 293°
2026-05-05 07:00 48.34493 11.77469 1480 ft 11 kts 356°
2026-05-05 07:00 48.34529 11.77563 1485 ft 13 kts 85°
2026-05-05 07:00 48.34540 11.77707 1478 ft 15 kts 83°
2026-05-05 07:00 48.34554 11.77872 1478 ft 17 kts 83°
2026-05-05 07:01 48.34567 11.78061 1475 ft 20 kts 83°
2026-05-05 07:01 48.34584 11.78277 1483 ft 20 kts 83°
2026-05-05 07:01 48.34602 11.78499 1485 ft 23 kts 83°
2026-05-05 07:01 48.34614 11.78724 1485 ft 19 kts 82°
2026-05-05 07:02 48.34635 11.78937 1485 ft 22 kts 83°
2026-05-05 07:02 48.34653 11.79176 1475 ft 24 kts 84°
2026-05-05 07:02 48.34670 11.79394 1481 ft 16 kts 83°
2026-05-05 07:02 48.34692 11.79533 1481 ft 10 kts 52°
2026-05-05 07:03 48.34763 11.79551 1480 ft 12 kts
2026-05-05 07:03 48.34854 11.79558 1485 ft 15 kts 353°
2026-05-05 07:03 48.34964 11.79539 1485 ft 17 kts 353°
2026-05-05 07:03 48.35071 11.79581 1485 ft 16 kts 43°
2026-05-05 07:04 48.35133 11.79673 1485 ft 13 kts 53°
2026-05-05 07:04 48.35140 11.79810 1482 ft 14 kts 87°
2026-05-05 07:04 48.35148 11.79934 1485 ft 12 kts 82°
2026-05-05 07:04 48.35159 11.80070 1482 ft 14 kts 83°
2026-05-05 07:05 48.35179 11.80151 1481 ft 4 kts 33°
2026-05-05 07:05 48.35213 11.80153 1485 ft 6 kts 358°
2026-05-05 07:05 48.35251 11.80126 1479 ft 6 kts 292°
2026-05-05 07:05 48.35246 11.80062 1485 ft 4 kts 262°
2026-05-05 07:06 48.35243 11.80028 1485 ft 2 kts 263°
2026-05-05 07:06 48.35242 11.80018 1473 ft 0 kts 263°